Daily Data: Northwest Mesa

   
1/21/18
Time         Wind Dir   Wind Spd  Wind Gust   Humidity       Temp  Dew Point   Barom SL  DailyRain   HourRain   RainRate
                            mph        mph          %         F         F         in         in         in      in/hr
12:00am           288          0          2         58       46.2       32.3      30.01       0.01       0.00      0.000
12:05am           288          0          0         59       46.0       32.5      30.01       0.00       0.00      0.000
12:10am           288          1          1         59       46.0       32.5      30.01       0.00       0.00      0.000
12:15am           288          0          1         59       46.2       32.7      30.02       0.00       0.00      0.000
12:20am           175          0          3         59       46.2       32.7      30.02       0.00       0.00      0.000
12:25am           175          0          1         58       46.1       32.2      30.02       0.00       0.00      0.000
12:30am           175          0          0         58       46.0       32.1      30.02       0.00       0.00      0.000
12:35am           175          0          0         58       45.7       31.8      30.02       0.00       0.00      0.000
12:40am           175          0          0         58       45.5       31.6      30.02       0.00       0.00      0.000
12:45am           175          0          0         59       44.9       31.5      30.03       0.00       0.00      0.000
12:50am           175          1          1         60       44.3       31.3      30.03       0.00       0.00      0.000
12:55am           175          0          2         60       44.3       31.3      30.03       0.00       0.00      0.000
1:00am            175          1          2         60       44.2       31.2      30.03       0.00       0.00      0.000
1:05am            175          0          2         60       44.2       31.2      30.03       0.00       0.00      0.000
1:10am            175          0          2         61       43.9       31.3      30.03       0.00       0.00      0.000
1:15am            175          1          2         61       43.6       31.1      30.03       0.00       0.00      0.000
1:20am            174          1          2         61       43.8       31.2      30.03       0.00       0.00      0.000
1:25am            175          0          2         61       43.6       31.1      30.03       0.00       0.00      0.000
1:30am            175          0          0         62       43.5       31.4      30.03       0.00       0.00      0.000
1:35am            175          0          2         62       43.3       31.2      30.03       0.00       0.00      0.000
1:40am            169          0          0         62       43.1       31.0      30.03       0.00       0.00      0.000
1:45am            174          0          2         63       42.9       31.2      30.04       0.00       0.00      0.000
1:50am            175          0          3         64       42.9       31.6      30.04       0.00       0.00      0.000
1:55am            175          0          3         65       43.1       32.2      30.04       0.00       0.00      0.000
2:00am            175          0          0         65       43.2       32.2      30.05       0.00       0.00      0.000
2:05am            175          0          0         65       42.9       32.0      30.05       0.00       0.00      0.000
2:10am            174          0          0         65       42.8       31.9      30.05       0.00       0.00      0.000
2:15am            175          0          0         65       42.5       31.6      30.04       0.00       0.00      0.000
2:20am            175          0          0         66       42.2       31.7      30.04       0.00       0.00      0.000
2:25am            175          0          0         66       41.9       31.4      30.04       0.00       0.00      0.000
2:30am            174          0          0         67       41.8       31.7      30.05       0.00       0.00      0.000
2:35am            175          0          0         67       41.5       31.4      30.05       0.00       0.00      0.000
2:40am            175          0          0         67       41.2       31.1      30.05       0.00       0.00      0.000
2:45am            329          2          3         67       40.9       30.8      30.05       0.00       0.00      0.000
2:50am            329          0          2         68       40.9       31.2      30.05       0.00       0.00      0.000
2:55am            329          0          0         68       40.8       31.1      30.05       0.00       0.00      0.000
3:00am            329          0          0         68       40.6       30.9      30.06       0.00       0.00      0.000
3:05am            335          0          1         69       40.5       31.1      30.06       0.00       0.00      0.000
3:10am            330          1          3         69       40.6       31.2      30.06       0.00       0.00      0.000
3:15am            329          2          2         67       41.1       31.0      30.06       0.00       0.00      0.000
3:20am            329          1          3         66       41.5       31.0      30.06       0.00       0.00      0.000
3:25am            329          1          3         64       41.9       30.6      30.06       0.00       0.00      0.000
3:30am            329          0          2         63       42.1       30.4      30.06       0.00       0.00      0.000
3:35am            329          0          0         62       42.1       30.0      30.06       0.00       0.00      0.000
3:40am            329          0          0         62       41.9       29.8      30.06       0.00       0.00      0.000
3:45am            330          0          0         63       41.8       30.1      30.06       0.00       0.00      0.000
3:50am            329          0          1         63       41.5       29.9      30.06       0.00       0.00      0.000
3:55am            330          0          1         63       41.5       29.9      30.06       0.00       0.00      0.000
4:00am            329          0          1         63       41.3       29.7      30.06       0.00       0.00      0.000
4:05am            329          2          3         63       41.5       29.9      30.06       0.00       0.00      0.000
4:10am            265          1          2         63       41.6       30.0      30.06       0.00       0.00      0.000
4:15am            265          0          2         63       41.6       30.0      30.06       0.00       0.00      0.000
4:20am            267          2          2         63       41.6       30.0      30.06       0.00       0.00      0.000
4:25am            265          0          2         63       41.8       30.1      30.06       0.00       0.00      0.000
4:30am            265          2          2         63       41.8       30.1      30.06       0.00       0.00      0.000
4:35am            265          2          3         63       41.8       30.1      30.06       0.00       0.00      0.000
4:40am            217          2          5         63       41.8       30.1      30.06       0.00       0.00      0.000
4:45am            191          6          6         63       41.6       30.0      30.07       0.00       0.00      0.000
4:50am            188          2          6         62       41.6       29.6      30.07       0.00       0.00      0.000
4:55am            191          2          5         62       41.6       29.6      30.07       0.00       0.00      0.000
5:00am            191          2          3         62       41.5       29.5      30.06       0.00       0.00      0.000
5:05am            192          2          3         62       41.5       29.5      30.06       0.00       0.00      0.000
5:10am            209          1          3         62       41.6       29.6      30.06       0.00       0.00      0.000
5:15am            209          0          3         62       41.8       29.8      30.07       0.00       0.00      0.000
5:20am            209          0          1         62       41.6       29.6      30.07       0.00       0.00      0.000
5:25am            209          0          0         63       41.5       29.9      30.07       0.00       0.00      0.000
5:30am            209          0          0         63       41.2       29.6      30.07       0.00       0.00      0.000
5:35am            210          3          3         63       40.8       29.2      30.07       0.00       0.00      0.000
5:40am            208          0          5         64       40.2       29.0      30.07       0.00       0.00      0.000
5:45am            208          0          2         65       40.1       29.3      30.09       0.00       0.00      0.000
5:50am            208          1          2         65       39.9       29.1      30.09       0.00       0.00      0.000
5:55am            208          0          1         66       39.8       29.4      30.09       0.00       0.00      0.000
6:00am            209          0          1         67       39.9       29.8      30.09       0.00       0.00      0.000
6:05am            208          0          1         67       39.5       29.5      30.09       0.00       0.00      0.000
6:10am            208          1          1         67       39.1       29.1      30.09       0.00       0.00      0.000
6:15am            208          1          2         68       38.8       29.2      30.11       0.00       0.00      0.000
6:20am            208          0          1         68       38.5       28.9      30.11       0.00       0.00      0.000
6:25am            208          0          1         69       38.3       29.0      30.11       0.00       0.00      0.000
6:30am            208          0          0         69       38.2       28.9      30.12       0.00       0.00      0.000
6:35am            208          0          0         69       38.0       28.7      30.12       0.00       0.00      0.000
6:40am            210          0          0         70       38.0       29.1      30.12       0.00       0.00      0.000
6:45am            208          0          0         70       38.0       29.1      30.12       0.00       0.00      0.000
6:50am            209          0          0         70       37.9       29.0      30.12       0.00       0.00      0.000
6:55am            208          1          1         71       37.8       29.3      30.12       0.00       0.00      0.000
7:00am            144          0          2         70       37.5       28.6      30.14       0.00       0.00      0.000
7:05am            144          1          1         71       37.5       29.0      30.14       0.00       0.00      0.000
7:10am            144          0          1         71       37.5       29.0      30.14       0.00       0.00      0.000
7:15am            144          1          1         71       37.3       28.8      30.14       0.00       0.00      0.000
7:20am            144          0          1         71       37.2       28.7      30.14       0.00       0.00      0.000
7:25am            144          0          1         72       37.0       28.8      30.14       0.00       0.00      0.000
7:30am            144          0          0         72       36.9       28.7      30.14       0.00       0.00      0.000
7:35am            144          0          0         72       36.9       28.7      30.14       0.00       0.00      0.000
7:40am            144          0          0         72       36.9       28.7      30.14       0.00       0.00      0.000
7:45am            144          0          0         72       36.9       28.7      30.15       0.00       0.00      0.000
7:50am            144          0          0         72       36.8       28.6      30.15       0.00       0.00      0.000